Time,TemperatureF,DewpointF,PressureIn,WindDirection,WindDirectionDegrees,WindSpeedMPH,WindSpeedGustMPH,Humidity,HourlyPrecipIn,Conditions,Clouds,dailyrainin,SoftwareType,DateUTC
2013-09-12 00:24:00,72.0,68.0,30.00,SE,135,0.0,0.0,87,0.00,,,0.00,,2013-09-12 04:24:00,
2013-09-12 00:33:00,71.0,67.0,29.98,SSE,158,0.0,4.0,88,0.00,,,0.00,,2013-09-12 04:33:00,
2013-09-12 00:54:00,71.0,67.0,29.98,SSE,158,0.0,4.0,88,0.00,,,0.00,,2013-09-12 04:54:00,
2013-09-12 01:03:00,71.0,67.0,29.98,SSE,158,0.0,4.0,88,0.00,,,0.00,,2013-09-12 05:03:00,
2013-09-12 01:13:00,71.0,67.0,29.98,SSE,158,0.0,4.0,88,0.00,,,0.00,,2013-09-12 05:13:00,
2013-09-12 01:23:00,71.0,67.0,29.98,SSE,158,0.0,4.0,88,0.00,,,0.00,,2013-09-12 05:23:00,
2013-09-12 11:54:00,82.0,74.0,29.87,West,270,2.0,4.0,78,0.00,,,0.00,,2013-09-12 15:54:00,
2013-09-12 12:23:00,83.0,74.0,29.87,SE,135,7.0,7.0,75,0.00,,,0.00,,2013-09-12 16:23:00,
2013-09-12 14:22:00,87.0,71.0,29.82,WSW,248,0.0,0.0,59,0.00,,,0.00,,2013-09-12 18:22:00,
2013-09-12 14:52:00,84.0,71.0,29.81,WSW,248,6.0,7.0,65,0.00,,,0.00,,2013-09-12 18:52:00,
2013-09-12 15:22:00,84.0,72.0,29.79,WSW,248,0.0,8.0,67,0.00,,,0.00,,2013-09-12 19:22:00,
2013-09-12 15:52:00,85.0,72.0,29.78,WSW,248,2.0,7.0,65,0.00,,,0.00,,2013-09-12 19:52:00,
2013-09-12 16:22:00,81.0,70.0,29.76,SW,225,0.0,5.0,70,0.00,,,0.00,,2013-09-12 20:22:00,
2013-09-12 16:52:00,79.0,70.0,29.76,SSW,203,0.0,7.0,74,0.00,,,0.00,,2013-09-12 20:52:00,
2013-09-12 17:22:00,77.0,69.0,29.75,SE,135,7.0,7.0,77,0.00,,,0.00,,2013-09-12 21:22:00,
2013-09-12 17:54:00,75.0,68.0,29.75,SSE,158,2.0,7.0,80,0.00,,,0.00,,2013-09-12 21:54:00,
2013-09-12 18:24:00,74.0,68.0,29.75,SSE,158,0.0,0.0,82,0.00,,,0.00,,2013-09-12 22:24:00,
2013-09-12 18:54:00,74.0,69.0,29.74,SW,225,0.0,7.0,84,0.00,,,0.00,,2013-09-12 22:54:00,
2013-09-12 19:23:00,73.0,68.0,29.73,SSW,203,0.0,6.0,85,0.00,,,0.00,,2013-09-12 23:23:00,
2013-09-12 19:53:00,72.0,68.0,29.73,West,270,0.0,3.0,86,0.00,,,0.00,,2013-09-12 23:53:00,
2013-09-12 20:22:00,72.0,68.0,29.72,South,180,0.0,0.0,86,0.00,,,0.00,,2013-09-13 00:22:00,
2013-09-12 20:52:00,72.0,68.0,29.73,SSE,158,4.0,4.0,87,0.00,,,0.00,,2013-09-13 00:52:00,
2013-09-12 21:02:00,72.0,68.0,29.73,SSE,158,4.0,4.0,87,0.00,,,0.00,,2013-09-13 01:02:00,
2013-09-12 21:11:00,72.0,68.0,29.73,SSE,158,4.0,4.0,87,0.00,,,0.00,,2013-09-13 01:11:00,